Regional Weather Roundup
Issued by NWS Midland/Odessa, TX

Skip options and go directly to product.
Home | Oldest Version | Next Version | Current Version | All | Text Only | Save Text | Print | Product List | Glossary On

Skip product version selection by date and time.   
859
ASUS44 KMAF 201710
RWRMAF
MIDLAND AREA WEATHER ROUNDUP
NATIONAL WEATHER SERVICE MIDLAND TX
1200 PM CDT WED AUG 20 2014

...IN SOUTHWEST TEXAS AND SOUTHEAST NEW MEXICO...

CITY           SKY/WX    TMP DP  RH WIND       PRES   REMARKS
ALPINE         CLOUDY    76  60  56 SW8       30.14S
ANDREWS        FAIR      88  62  41 SW15      29.98S
ARTESIA        SUNNY     86  55  35 SW8       29.96S
BIG SPRING     SUNNY     87  63  44 S18G24    30.00S
CARLSBAD       PTSUNNY   87  56  34 CALM      29.93F
DRYDEN           N/A     90  66  45 E10       29.96S
FORT STOCKTON  SUNNY     86  63  45 SW6       29.98S
GUAD PASS      SUNNY     75  55  49 SW22G31   30.12S
HOBBS          SUNNY     86  57  37 S17       29.99S
MARFA          PTSUNNY   75  57  53 W13       30.13S
MIDLAND AIRPK  MOSUNNY   88  63  43 S15G21    29.98S
MIDLAND INTL   SUNNY     88  64  44 S16       29.97S
ODESSA         SUNNY     86  64  47 S13G23    29.99R
PECOS          SUNNY     89  55  31 W14       29.95S
PRESIDIO       FAIR      81  64  57 CALM      30.01S
SEMINOLE       SUNNY     88  58  35 SW12G20   29.98S
SNYDER         SUNNY     85  66  52 S16G24    29.98S
WINK           PTSUNNY   88  60  38 SW14      29.95S
$$
...OTHER STATIONS IN TEXAS...

CITY           SKY/WX    TMP DP  RH WIND       PRES   REMARKS
ABILENE        SUNNY     87  65  47 S23G31    29.98S
AMARILLO       SUNNY     87  63  44 SW17G24   29.95S
AUSTIN         PTSUNNY   93  70  46 S14G22    29.97F
BROWNSVILLE    MOSUNNY   93  76  57 SE22G30   29.95F HX 105
CORPUS CHRISTI PTSUNNY   91  75  59 S21G29    29.96S HX 101
DALLAS FTW     MOSUNNY   90  71  53 S15       29.97F
DEL RIO        MOSUNNY   87  70  56 SE13G21   29.94S
EL PASO        MOSUNNY   79  57  46 W10       30.03S
HOUSTON INT    PTSUNNY   91  73  55 S12G20    30.01R
LUBBOCK        MOSUNNY   87  63  44 S15       29.97S
SAN ANGELO     PTSUNNY   86  68  54 S13G24    29.98F
SAN ANTONIO    MOSUNNY   92  69  47 SE14G20   29.99S
WACO           SUNNY     91  70  49 S15       29.99S
WICHITA FALLS  NOT AVBL
$$
...OTHER LOCATIONS IN NEW MEXICO...

CITY           SKY/WX    TMP DP  RH WIND       PRES   REMARKS
ALAMAGORDO     MOSUNNY   77  55  47 S6        30.05S
ALBUQUERQUE    MOSUNNY   76  52  43 VRB7      30.12S
CANNON AFB     SUNNY     85  55  35 SW9G18    29.99S
CLOVIS           N/A     86  59  39 S10       30.01S
HOLLOMAN AFB   MOSUNNY   78  57  48 SE7       30.03S
ROSWELL        MOSUNNY   85  59  41 SE6       29.96S
RUIDOSO        MOSUNNY   72  54  53 N12       30.21R
SANTA FE       PTSUNNY   71  51  49 CALM      30.15R
TRUTH OR CONSE SUNNY     80  51  36 N7        30.09R
TUCUMCARI      SUNNY     92  52  25 SW13      29.93S
$$

USA.gov is the U.S. government's official web portal to all federal, state and local government web resources and services.